Time,TemperatureF,DewpointF,PressureIn,WindDirection,WindDirectionDegrees,WindSpeedMPH,WindSpeedGustMPH,Humidity,HourlyPrecipIn,Conditions,Clouds,dailyrainin,SoftwareType,DateUTC
2017-08-20 00:04:00,76.7,65.8,29.94,SSE,155,1.0,8.0,69,0.00,,,0.00,Wunderground v.1.13,2017-08-20 04:04:00,
2017-08-20 00:10:00,76.5,66.0,29.94,SSE,155,3.0,8.0,70,0.00,,,0.00,Wunderground v.1.13,2017-08-20 04:10:00,
2017-08-20 00:16:00,76.3,65.8,29.94,SSE,155,2.0,8.0,70,0.00,,,0.00,Wunderground v.1.13,2017-08-20 04:16:00,
2017-08-20 00:22:00,76.0,65.9,29.94,SSE,155,2.0,8.0,71,0.00,,,0.00,Wunderground v.1.13,2017-08-20 04:22:00,
2017-08-20 00:28:00,76.0,66.7,29.94,SSE,155,0.0,8.0,73,0.00,,,0.00,Wunderground v.1.13,2017-08-20 04:28:00,
2017-08-20 00:34:00,76.0,67.5,29.93,SSE,155,0.0,8.0,75,0.00,,,0.00,Wunderground v.1.13,2017-08-20 04:34:00,
2017-08-20 00:42:00,75.6,67.9,29.93,SSE,155,0.0,8.0,77,0.00,,,0.00,Wunderground v.1.13,2017-08-20 04:42:00,
2017-08-20 00:48:00,75.4,68.4,29.94,WNW,285,0.0,8.0,79,0.00,,,0.00,Wunderground v.1.13,2017-08-20 04:48:00,
2017-08-20 00:54:00,75.3,68.3,29.94,WNW,282,0.0,8.0,79,0.00,,,0.00,Wunderground v.1.13,2017-08-20 04:54:00,
2017-08-20 01:00:00,75.1,68.1,29.94,WNW,282,0.0,8.0,79,0.00,,,0.00,Wunderground v.1.13,2017-08-20 05:00:00,
2017-08-20 01:06:00,74.7,67.0,29.94,WNW,282,0.0,8.0,77,0.00,,,0.00,Wunderground v.1.13,2017-08-20 05:06:00,
2017-08-20 01:12:00,74.6,66.9,29.94,WNW,282,0.0,8.0,77,0.00,,,0.00,Wunderground v.1.13,2017-08-20 05:12:00,
2017-08-20 01:18:00,74.6,66.9,29.95,WNW,282,0.0,8.0,77,0.00,,,0.00,Wunderground v.1.13,2017-08-20 05:18:00,
2017-08-20 01:24:00,74.6,67.3,29.95,WNW,282,0.0,8.0,78,0.00,,,0.00,Wunderground v.1.13,2017-08-20 05:24:00,
2017-08-20 01:30:00,74.4,67.5,29.95,WNW,282,0.0,8.0,79,0.00,,,0.00,Wunderground v.1.13,2017-08-20 05:30:00,
2017-08-20 01:36:00,74.4,67.5,29.95,WNW,282,0.0,8.0,79,0.00,,,0.00,Wunderground v.1.13,2017-08-20 05:36:00,
2017-08-20 01:42:00,74.4,67.5,29.95,WNW,282,0.0,8.0,79,0.00,,,0.00,Wunderground v.1.13,2017-08-20 05:42:00,
2017-08-20 01:48:00,74.2,67.3,29.95,WNW,282,0.0,8.0,79,0.00,,,0.00,Wunderground v.1.13,2017-08-20 05:48:00,
2017-08-20 01:54:00,74.2,67.3,29.95,WNW,282,0.0,8.0,79,0.00,,,0.00,Wunderground v.1.13,2017-08-20 05:54:00,
2017-08-20 02:00:00,74.0,67.1,29.95,WNW,282,0.0,8.0,79,0.00,,,0.00,Wunderground v.1.13,2017-08-20 06:00:00,
2017-08-20 02:06:00,74.0,66.7,29.95,WNW,282,0.0,8.0,78,0.00,,,0.00,Wunderground v.1.13,2017-08-20 06:06:00,
2017-08-20 02:12:00,73.9,66.6,29.95,WNW,282,0.0,8.0,78,0.00,,,0.00,Wunderground v.1.13,2017-08-20 06:12:00,
2017-08-20 02:18:00,73.9,67.0,29.95,WNW,282,0.0,8.0,79,0.00,,,0.00,Wunderground v.1.13,2017-08-20 06:18:00,
2017-08-20 02:24:00,73.9,67.0,29.95,WNW,282,0.0,8.0,79,0.00,,,0.00,Wunderground v.1.13,2017-08-20 06:24:00,
2017-08-20 02:30:00,73.9,67.0,29.95,WNW,282,0.0,8.0,79,0.00,,,0.00,Wunderground v.1.13,2017-08-20 06:30:00,
2017-08-20 02:36:00,73.9,67.0,29.95,WNW,282,0.0,8.0,79,0.00,,,0.00,Wunderground v.1.13,2017-08-20 06:36:00,
2017-08-20 02:42:00,73.9,67.3,29.95,WNW,282,0.0,8.0,80,0.00,,,0.00,Wunderground v.1.13,2017-08-20 06:42:00,
2017-08-20 02:48:00,73.9,67.3,29.95,WNW,282,0.0,8.0,80,0.00,,,0.00,Wunderground v.1.13,2017-08-20 06:48:00,
2017-08-20 02:54:00,73.9,67.0,29.95,WNW,282,0.0,8.0,79,0.00,,,0.00,Wunderground v.1.13,2017-08-20 06:54:00,
2017-08-20 03:00:00,73.9,67.0,29.95,WNW,282,0.0,8.0,79,0.00,,,0.00,Wunderground v.1.13,2017-08-20 07:00:00,
2017-08-20 03:06:00,73.9,67.0,29.95,WNW,282,0.0,8.0,79,0.00,,,0.00,Wunderground v.1.13,2017-08-20 07:06:00,
2017-08-20 03:12:00,73.9,67.0,29.95,WNW,282,0.0,8.0,79,0.00,,,0.00,Wunderground v.1.13,2017-08-20 07:12:00,
2017-08-20 03:18:00,73.9,67.0,29.95,WNW,282,0.0,8.0,79,0.00,,,0.00,Wunderground v.1.13,2017-08-20 07:18:00,
2017-08-20 03:24:00,73.9,66.6,29.95,WNW,282,0.0,8.0,78,0.00,,,0.00,Wunderground v.1.13,2017-08-20 07:24:00,
2017-08-20 03:30:00,73.9,66.6,29.95,WNW,282,0.0,8.0,78,0.00,,,0.00,Wunderground v.1.13,2017-08-20 07:30:00,
2017-08-20 03:36:00,73.9,67.0,29.95,WNW,284,0.0,8.0,79,0.00,,,0.00,Wunderground v.1.13,2017-08-20 07:36:00,
2017-08-20 03:42:00,73.9,67.0,29.95,WNW,285,0.0,8.0,79,0.00,,,0.00,Wunderground v.1.13,2017-08-20 07:42:00,
2017-08-20 03:48:00,73.7,66.8,29.95,WNW,292,0.0,8.0,79,0.00,,,0.00,Wunderground v.1.13,2017-08-20 07:48:00,
2017-08-20 03:54:00,73.7,67.1,29.95,WNW,292,0.0,8.0,80,0.00,,,0.00,Wunderground v.1.13,2017-08-20 07:54:00,
2017-08-20 04:00:00,73.5,66.9,29.95,WNW,292,0.0,8.0,80,0.00,,,0.00,Wunderground v.1.13,2017-08-20 08:00:00,
2017-08-20 04:06:00,73.5,66.6,29.95,WNW,292,0.0,8.0,79,0.00,,,0.00,Wunderground v.1.13,2017-08-20 08:06:00,
2017-08-20 04:12:00,73.5,66.6,29.95,WNW,292,0.0,8.0,79,0.00,,,0.00,Wunderground v.1.13,2017-08-20 08:12:00,
2017-08-20 04:18:00,73.3,66.4,29.95,WNW,292,0.0,8.0,79,0.00,,,0.00,Wunderground v.1.13,2017-08-20 08:18:00,
2017-08-20 04:24:00,73.3,66.8,29.95,WNW,292,0.0,8.0,80,0.00,,,0.00,Wunderground v.1.13,2017-08-20 08:24:00,
2017-08-20 04:30:00,73.3,66.8,29.96,WNW,292,0.0,8.0,80,0.00,,,0.00,Wunderground v.1.13,2017-08-20 08:30:00,
2017-08-20 04:36:00,73.2,66.7,29.96,WNW,292,0.0,8.0,80,0.00,,,0.00,Wunderground v.1.13,2017-08-20 08:36:00,
2017-08-20 04:42:00,73.2,66.7,29.96,WNW,292,0.0,8.0,80,0.00,,,0.00,Wunderground v.1.13,2017-08-20 08:42:00,
2017-08-20 04:48:00,73.2,66.7,29.96,WNW,292,0.0,8.0,80,0.00,,,0.00,Wunderground v.1.13,2017-08-20 08:48:00,
2017-08-20 04:54:00,73.2,66.7,29.96,WNW,292,0.0,8.0,80,0.00,,,0.00,Wunderground v.1.13,2017-08-20 08:54:00,
2017-08-20 05:00:00,73.2,67.4,29.97,WSW,250,0.0,8.0,82,0.00,,,0.00,Wunderground v.1.13,2017-08-20 09:00:00,
2017-08-20 05:06:00,73.3,67.5,29.97,WSW,250,2.0,8.0,82,0.00,,,0.00,Wunderground v.1.13,2017-08-20 09:06:00,
2017-08-20 05:12:00,73.3,67.5,29.97,WSW,246,2.0,8.0,82,0.00,,,0.00,Wunderground v.1.13,2017-08-20 09:12:00,
2017-08-20 05:18:00,73.2,67.4,29.97,WSW,244,2.0,2.0,82,0.00,,,0.00,Wunderground v.1.13,2017-08-20 09:18:00,
2017-08-20 05:24:00,73.2,67.4,29.97,WSW,244,1.0,1.0,82,0.00,,,0.00,Wunderground v.1.13,2017-08-20 09:24:00,
2017-08-20 05:30:00,73.0,67.2,29.97,WSW,244,0.0,8.0,82,0.00,,,0.00,Wunderground v.1.13,2017-08-20 09:30:00,
2017-08-20 05:36:00,72.8,67.0,29.97,WSW,244,0.0,8.0,82,0.00,,,0.00,Wunderground v.1.13,2017-08-20 09:36:00,
2017-08-20 05:42:00,72.8,67.0,29.97,WSW,244,0.0,8.0,82,0.00,,,0.00,Wunderground v.1.13,2017-08-20 09:42:00,
2017-08-20 05:48:00,72.7,66.9,29.97,WSW,244,0.0,8.0,82,0.00,,,0.00,Wunderground v.1.13,2017-08-20 09:48:00,
2017-08-20 05:54:00,72.7,66.9,29.97,WSW,244,0.0,8.0,82,0.00,,,0.00,Wunderground v.1.13,2017-08-20 09:54:00,
2017-08-20 06:00:00,72.5,66.7,29.97,WSW,244,0.0,8.0,82,0.00,,,0.00,Wunderground v.1.13,2017-08-20 10:00:00,
2017-08-20 06:06:00,72.3,66.5,29.97,WSW,244,0.0,8.0,82,0.00,,,0.00,Wunderground v.1.13,2017-08-20 10:06:00,
2017-08-20 06:12:00,72.3,66.5,29.97,WSW,244,0.0,8.0,82,0.00,,,0.00,Wunderground v.1.13,2017-08-20 10:12:00,
2017-08-20 06:18:00,72.3,66.5,29.97,WSW,244,0.0,8.0,82,0.00,,,0.00,Wunderground v.1.13,2017-08-20 10:18:00,
2017-08-20 06:24:00,72.1,66.3,29.97,WSW,244,0.0,8.0,82,0.00,,,0.00,Wunderground v.1.13,2017-08-20 10:24:00,
2017-08-20 06:30:00,72.0,66.2,29.97,WSW,244,0.0,8.0,82,0.00,,,0.00,Wunderground v.1.13,2017-08-20 10:30:00,
2017-08-20 06:36:00,72.0,66.2,29.97,WSW,246,0.0,8.0,82,0.00,,,0.00,Wunderground v.1.13,2017-08-20 10:36:00,
2017-08-20 06:42:00,72.0,66.2,29.97,WSW,246,0.0,8.0,82,0.00,,,0.00,Wunderground v.1.13,2017-08-20 10:42:00,
2017-08-20 06:48:00,71.8,65.7,29.97,WSW,246,0.0,8.0,81,0.00,,,0.00,Wunderground v.1.13,2017-08-20 10:48:00,
2017-08-20 06:54:00,71.8,65.7,29.97,WSW,244,0.0,8.0,81,0.00,,,0.00,Wunderground v.1.13,2017-08-20 10:54:00,
2017-08-20 07:00:00,71.8,65.7,29.98,WSW,244,0.0,8.0,81,0.00,,,0.00,Wunderground v.1.13,2017-08-20 11:00:00,
2017-08-20 07:06:00,71.8,66.0,29.98,WSW,244,0.0,8.0,82,0.00,,,0.00,Wunderground v.1.13,2017-08-20 11:06:00,
2017-08-20 07:12:00,71.8,65.7,29.98,WSW,244,0.0,8.0,81,0.00,,,0.00,Wunderground v.1.13,2017-08-20 11:12:00,
2017-08-20 07:18:00,71.8,65.7,29.98,WSW,244,0.0,8.0,81,0.00,,,0.00,Wunderground v.1.13,2017-08-20 11:18:00,
2017-08-20 07:24:00,72.0,66.2,29.98,SW,234,1.0,8.0,82,0.00,,,0.00,Wunderground v.1.13,2017-08-20 11:24:00,
2017-08-20 07:30:00,71.8,66.4,29.99,SW,234,2.0,8.0,83,0.00,,,0.00,Wunderground v.1.13,2017-08-20 11:30:00,
2017-08-20 07:36:00,71.8,66.4,29.99,SW,234,2.0,8.0,83,0.00,,,0.00,Wunderground v.1.13,2017-08-20 11:36:00,
2017-08-20 07:42:00,71.8,66.4,29.99,SW,234,1.0,1.0,83,0.00,,,0.00,Wunderground v.1.13,2017-08-20 11:42:00,
2017-08-20 07:48:00,71.8,66.0,30.00,SW,234,0.0,8.0,82,0.00,,,0.00,Wunderground v.1.13,2017-08-20 11:48:00,